[[{"header":{"parameterUnit":"m.s-1","parameterCategory":1,"la1":30.2991,"la2":30.254,"lo1":-89.0895,"lo2":-89.0444,"dy":0.0017,"dx":0.0017,"nx":28,"ny":28,"refTime":"2024-10-16T09:00:00:Z","depth":0,"parameterNumber":2,"parameterNumberName":"U-component_of_WINDS"},"data":[0,0,0,0,0,0,0,0,0,0,0,0,0,0,0,0,0,0,0,0,0,0,0,0,0,0,0,0,0,0,0,0,0,0,0,0,0,0,0,0,0,0,0,0,0,0,0,0,0,0,0,0,0,0,0,0,0,0,-5.4467,-5.4467,0,-5.4486,-5.4486,-5.4486,-5.4238,-5.4231,-5.4225,-5.4218,-5.424,-5.4247,-5.4254,0,0,0,0,0,0,0,0,0,0,0,0,0,-5.4216,-5.4222,-5.4467,-5.4467,-5.4467,-5.4486,-5.4486,-5.4486,-5.4239,-5.4231,-5.4223,-5.4215,-5.4238,-5.4246,-5.4254,0,0,0,0,0,0,0,0,0,0,0,0,0,-5.429,-5.4224,-5.4467,-5.4346,-5.4335,-5.4486,-5.4486,-5.4486,-5.4241,-5.4231,-5.4221,-5.4211,-5.4235,-5.4245,-5.4255,-5.4523,0,0,-5.4287,-5.4292,0,0,0,0,0,0,0,0,-5.4286,-5.4299,-5.4363,-5.4355,-5.4343,-5.4349,-5.4405,-5.4499,-5.4244,-5.4277,-5.4218,-5.4206,-5.4285,-5.429,-5.4316,-5.4524,-5.4525,-5.4288,-5.4294,-5.4299,-5.4302,0,0,0,0,0,0,0,-5.4281,-5.4297,-5.4474,-5.4365,-5.4352,-5.4291,-5.429,-5.4422,-5.4338,-5.4273,-5.4255,-5.4261,-5.4277,-5.4307,-5.4315,-5.4525,-5.4288,-5.4297,-5.4303,-5.4307,-5.4952,-5.4962,0,0,0,0,0,0,-5.4292,-5.4294,-5.4473,-5.4475,-5.4289,-5.4304,-5.4303,-5.4357,-5.4336,-5.4322,-5.427,-5.4249,-5.4294,-5.4303,-5.4315,-5.4626,-5.4299,-5.4308,-5.4314,-5.4941,-5.4954,-5.4966,0,0,0,0,0,0,-5.4288,-5.431,-5.4473,-5.438,-5.4395,-5.4319,-5.4382,-5.4363,-5.4393,-5.4333,-5.4317,-5.4316,-5.4287,-5.43,-5.4473,-5.4624,-5.4313,-5.4322,-5.4928,-5.4945,-5.496,-5.5252,0,0,0,0,0,0,-5.4281,-5.431,-5.4411,-5.4384,-5.4401,-5.4631,-5.4391,-5.4371,-5.4411,-5.4385,-5.4372,-5.436,-5.428,-5.4459,-5.4483,-5.4632,-5.4331,-5.4914,-5.4935,-5.4955,-5.5229,-5.5276,-5.5317,0,0,0,0,0,-5.4273,-5.4493,-5.4418,-5.4441,-5.4526,-5.464,-5.465,-5.4553,-5.4424,-5.4525,-5.4486,-5.436,-5.4603,-5.4478,-5.4504,-5.4658,-5.4904,-5.4929,-5.4953,-5.5209,-5.5267,-5.5316,0,0,0,0,0,0,-5.4542,-5.4488,-5.4403,-5.4621,-5.4637,-5.4598,-5.4722,-5.4618,-5.4672,-5.4645,-5.4523,-5.4522,-5.4715,-5.4703,-5.4565,-5.4915,-5.4731,-5.4762,-5.4916,-5.4971,-5.5015,-5.5014,-5.4339,0,0,0,0,0,-5.4626,-5.4723,-5.467,-5.4867,-5.488,-5.4801,-5.4847,-5.477,-5.4782,-5.4788,-5.4762,-5.4779,-5.4858,-5.4914,-5.4984,-5.5225,-5.5218,-5.5344,-5.5388,-5.5425,-5.5453,-5.558,-5.5635,-5.5046,-5.5046,-5.5046,0,0,-5.4802,-5.4784,-5.4853,-5.4921,-5.4924,-5.5028,-5.4808,-5.4927,-5.5002,-5.4806,-5.4967,-5.4949,-5.4959,-5.5168,-5.5258,-5.5164,-5.5614,-5.5456,-5.5486,-5.5494,-5.5611,-5.5666,-5.5716,-5.5063,-5.506,-5.5057,0,0,-5.5175,-5.5171,-5.5335,-5.5342,-5.535,-5.5295,-5.5335,-5.5312,-5.5292,-5.5451,-5.5306,-5.5394,-5.5534,-5.5547,-5.5573,-5.5949,-5.5836,-5.5975,-5.6208,-5.6332,-5.6379,-5.6419,-5.6554,-5.6604,-5.6004,-5.6005,-5.6005,0,-5.5393,-5.5542,-5.5432,-5.5561,-5.5595,-5.542,-5.5585,-5.5598,-5.5629,-5.5657,-5.5551,-5.5722,-5.5717,-5.5925,-5.6017,-5.6043,-5.6085,-5.5977,-5.6381,-5.642,-5.6457,-5.6584,-5.6635,-5.6021,-5.602,-5.6018,-5.6016,0,-5.581,-5.5916,-5.6047,-5.608,-5.6128,-5.6275,-5.6187,-5.6249,-5.6168,-5.6125,-5.629,-5.6277,-5.6341,-5.6384,-5.6307,-5.6583,-5.6524,-5.6402,-5.6214,-5.6532,-5.6649,-5.6697,-5.6046,-5.604,-5.6035,-5.603,0,0,-5.6355,-5.6324,-5.6374,-5.6387,-5.6381,-5.6461,-5.6599,-5.6661,-5.6717,-5.6744,-5.6857,-5.6978,-5.6864,-5.6894,-5.6815,-5.6925,-5.7225,-5.6788,-5.6787,-5.6871,-5.7528,-5.7621,-5.7679,-5.7148,-5.7157,-5.7164,-5.7527,0,-5.6718,-5.6952,-5.6856,-5.7099,-5.7195,-5.703,-5.715,-5.716,-5.7123,-5.7199,-5.7157,-5.7246,-5.7089,-5.7105,-5.7206,-5.7167,-5.7355,-5.7139,-5.7253,-5.7259,-5.7257,-5.7741,-5.784,-5.8183,-5.7572,-5.758,-5.7586,0,-5.7174,-5.7219,-5.7471,-5.7448,-5.7484,-5.7594,-5.7643,-5.7718,-5.7725,-5.769,-5.7723,-5.762,-5.7753,-5.7565,-5.7748,-5.7603,-5.7643,-5.7632,-5.7642,-5.765,-5.7443,-5.7763,-5.829,-5.8342,-5.7657,-5.7651,-5.7646,0,-5.7547,-5.767,-5.7836,-5.7852,-5.7829,-5.791,-5.7905,-5.7902,-5.7945,-5.7987,-5.8014,-5.8072,-5.8105,-5.8152,-5.8067,-5.7938,-5.8262,-5.8067,-5.8238,-5.824,-5.8315,-5.8312,-5.8857,-5.834,-5.8339,-5.8338,-5.8337,0,-5.7964,-5.8125,-5.8004,-5.8107,-5.8282,-5.817,-5.8346,-5.8322,-5.8321,-5.8416,-5.8277,-5.8369,-5.8251,-5.8332,-5.8267,-5.8428,-5.8444,-5.842,-5.8401,-5.8433,-5.8437,-5.8459,-5.8433,-5.8351,-5.8348,-5.8346,-5.8343,0,-5.8412,-5.8337,-5.8507,-5.8471,-5.8465,-5.8597,-5.8565,-5.8659,-5.8611,-5.8733,-5.8755,-5.8681,-5.8769,-5.8689,-5.8773,-5.8729,-5.8945,-5.8891,-5.8943,-5.8928,-5.9103,-5.9088,-5.9683,-5.9756,-5.9192,-5.9197,-5.9202,0,-5.8683,-5.8803,-5.8779,-5.8832,-5.8835,-5.8923,-5.8966,-5.8859,-5.891,-5.8927,-5.9019,-5.9095,-5.915,-5.9298,-5.9252,-5.9316,-5.9263,-5.9467,-5.9272,-5.93,-5.9267,-5.9261,-5.9273,-5.9508,-5.9514,-5.952,-5.9524,0,-5.9174,-5.913,-5.9197,-5.9252,-5.9306,-5.9344,-5.9371,-5.9423,-5.9313,-5.9377,-5.9465,-5.9508,-5.9593,-5.967,-5.9719,-5.9712,-5.9602,-5.9586,-5.9628,-5.9664,-5.9689,-5.9678,-5.9052,-5.9573,-5.9568,-5.9564,-5.9562,-5.956,-5.9541,-5.964,-5.9638,-5.9717,-5.9726,-5.9754,-5.984,-5.9802,-5.9874,-5.9934,-5.9867,-5.9975,-5.9978,-6.0032,-6.0039,-6.0121,-6.0035,-6.0098,-6.0114,-6.0131,-6.0157,-5.9675,-6.0129,-6.0128,-6.0126,-6.0125,-6.0124,0,-6.0025,-6.0015,-6.0089,-6.013,-6.0193,-6.008,-6.0104,-6.0164,-6.026,-6.0272,-6.0329,-6.043,-6.0503,-6.0463,-6.0526,-6.06,-6.0551,-6.0621,-6.0615,-6.0615,-6.0229,-6.0186,-6.066,-6.066,-6.066,-6.0659,-6.0659,-6.0659,-6.0284,-6.0444,-6.0401,-6.0565,-6.0553,-6.0657,-6.068,-6.0705,-6.0714,-6.0833,-6.0893,-6.0865,-6.0856,-6.0918,-6.0981,-6.0967,-6.0997,-6.1086,-6.1055,-6.0695,-6.0643,-6.0592,-6.0551,-6.1093,-6.1094,-6.1433,-6.1436,-6.1438]},{"header":{"parameterUnit":"m.s-1","parameterCategory":1,"la1":30.2991,"la2":30.254,"lo1":-89.0895,"lo2":-89.0444,"dy":0.0017,"dx":0.0017,"nx":28,"ny":28,"refTime":"2024-10-16T09:00:00:Z","depth":0,"parameterNumber":3,"parameterNumberName":"V-component_of_WINDS"},"data":[0,0,0,0,0,0,0,0,0,0,0,0,0,0,0,0,0,0,0,0,0,0,0,0,0,0,0,0,0,0,0,0,0,0,0,0,0,0,0,0,0,0,0,0,0,0,0,0,0,0,0,0,0,0,0,0,0,0,-5.3845,-5.3845,0,-5.3898,-5.3899,-5.39,-5.3819,-5.3816,-5.3813,-5.381,-5.3862,-5.3866,-5.387,0,0,0,0,0,0,0,0,0,0,0,0,0,-5.3667,-5.3671,-5.3845,-5.3845,-5.3846,-5.3898,-5.3899,-5.39,-5.3819,-5.3816,-5.3812,-5.3809,-5.3861,-5.3865,-5.387,0,0,0,0,0,0,0,0,0,0,0,0,0,-5.3735,-5.3672,-5.3845,-5.3812,-5.381,-5.3898,-5.3899,-5.39,-5.382,-5.3816,-5.3811,-5.3807,-5.3859,-5.3865,-5.3871,-5.3992,0,0,-5.3889,-5.3892,0,0,0,0,0,0,0,0,-5.3731,-5.3742,-5.3816,-5.3815,-5.3812,-5.3848,-5.3855,-5.3931,-5.3821,-5.3816,-5.381,-5.3805,-5.386,-5.3866,-5.3885,-5.3995,-5.3997,-5.389,-5.3893,-5.3896,-5.3897,0,0,0,0,0,0,0,-5.3727,-5.3739,-5.3866,-5.3817,-5.3815,-5.3793,-5.3798,-5.3869,-5.3861,-5.3816,-5.381,-5.3818,-5.3858,-5.388,-5.3886,-5.3998,-5.3889,-5.3895,-5.3898,-5.3901,-5.4206,-5.421,0,0,0,0,0,0,-5.3726,-5.3735,-5.3864,-5.3867,-5.3761,-5.38,-5.3805,-5.384,-5.386,-5.3859,-5.3821,-5.3814,-5.3871,-5.3879,-5.3887,-5.4028,-5.3896,-5.3901,-5.3905,-5.4202,-5.4207,-5.4212,0,0,0,0,0,0,-5.3723,-5.3739,-5.3862,-5.38,-5.3814,-5.3807,-5.3847,-5.3844,-5.3865,-5.3864,-5.3862,-5.3845,-5.3868,-5.3879,-5.3966,-5.4029,-5.3904,-5.391,-5.4196,-5.4203,-5.421,-5.4313,0,0,0,0,0,0,-5.3718,-5.3738,-5.3785,-5.3802,-5.3818,-5.3942,-5.3851,-5.3848,-5.3876,-5.3866,-5.3886,-5.3885,-5.3866,-5.3958,-5.3972,-5.4035,-5.3914,-5.4191,-5.4199,-5.4207,-5.4304,-5.4323,-5.4339,0,0,0,0,0,-5.3712,-5.3813,-5.3788,-5.3804,-5.3877,-5.3946,-5.3955,-5.3932,-5.3881,-5.3928,-5.3927,-5.3884,-5.402,-5.3967,-5.3983,-5.4049,-5.4186,-5.4197,-5.4207,-5.4297,-5.4319,-5.4338,0,0,0,0,0,0,-5.3803,-5.3814,-5.3787,-5.3896,-5.3921,-5.3932,-5.399,-5.3957,-5.3996,-5.3985,-5.3954,-5.3959,-5.4052,-5.4059,-5.4,-5.4166,-5.4095,-5.4108,-5.4158,-5.4179,-5.4196,-5.4192,-5.3919,0,0,0,0,0,-5.3836,-5.3893,-5.3898,-5.3994,-5.4008,-5.3997,-5.4026,-5.4006,-5.403,-5.404,-5.4045,-5.4069,-5.4116,-5.4148,-5.4192,-5.4305,-5.4307,-5.4358,-5.4375,-5.4389,-5.4401,-5.4458,-5.448,-5.4245,-5.4245,-5.4245,0,0,-5.3905,-5.3917,-5.3955,-5.4012,-5.4029,-5.4086,-5.4006,-5.4071,-5.4112,-5.4049,-5.4131,-5.4136,-5.416,-5.426,-5.4305,-5.4269,-5.4466,-5.4402,-5.4414,-5.4418,-5.4471,-5.4493,-5.4513,-5.4252,-5.4251,-5.425,0,0,-5.4058,-5.4074,-5.4154,-5.4172,-5.4199,-5.4191,-5.421,-5.4226,-5.4227,-5.431,-5.4263,-5.4311,-5.4394,-5.4412,-5.4433,-5.4591,-5.4552,-5.4606,-5.4695,-5.4752,-5.477,-5.4786,-5.484,-5.486,-5.4618,-5.4618,-5.4618,0,-5.4139,-5.4224,-5.4199,-5.4267,-5.4292,-5.4238,-5.4317,-5.4336,-5.4375,-5.4393,-5.4353,-5.4455,-5.4468,-5.457,-5.4608,-5.4627,-5.4646,-5.4603,-5.477,-5.4786,-5.4801,-5.4852,-5.4872,-5.4624,-5.4624,-5.4623,-5.4623,0,-5.4321,-5.4381,-5.4442,-5.4482,-5.4514,-5.4587,-5.4571,-5.4607,-5.4584,-5.458,-5.4663,-5.4676,-5.472,-5.4743,-5.4722,-5.4842,-5.4819,-5.4775,-5.4703,-5.483,-5.4877,-5.4896,-5.4633,-5.4631,-5.4629,-5.4628,0,0,-5.4534,-5.4557,-5.458,-5.4596,-5.462,-5.4665,-5.4734,-5.4778,-5.4808,-5.4837,-5.4892,-5.4964,-5.4923,-5.4946,-5.4925,-5.4975,-5.5096,-5.4925,-5.4925,-5.4954,-5.5226,-5.5258,-5.5281,-5.5071,-5.5075,-5.5078,-5.5224,0,-5.4684,-5.4805,-5.4784,-5.49,-5.4953,-5.4902,-5.4962,-5.4983,-5.498,-5.5024,-5.502,-5.507,-5.5014,-5.5027,-5.5074,-5.5072,-5.515,-5.5061,-5.512,-5.5123,-5.5114,-5.5306,-5.534,-5.5477,-5.5242,-5.5245,-5.5248,0,-5.4876,-5.4912,-5.5034,-5.5047,-5.5069,-5.5124,-5.5161,-5.5204,-5.5225,-5.5219,-5.5245,-5.5214,-5.5281,-5.5209,-5.5299,-5.5239,-5.5262,-5.5264,-5.5269,-5.5272,-5.5192,-5.5312,-5.552,-5.554,-5.5277,-5.5275,-5.5272,0,-5.5016,-5.5094,-5.5176,-5.5192,-5.5211,-5.525,-5.5259,-5.5276,-5.5303,-5.5335,-5.5352,-5.5392,-5.5413,-5.5444,-5.5424,-5.5374,-5.5517,-5.5444,-5.5512,-5.5513,-5.5543,-5.5541,-5.5755,-5.5562,-5.5562,-5.5561,-5.5561,0,-5.5185,-5.5261,-5.5239,-5.529,-5.5372,-5.5346,-5.5428,-5.5431,-5.5447,-5.5495,-5.5454,-5.55,-5.5472,-5.5516,-5.5501,-5.5576,-5.5587,-5.5583,-5.5577,-5.5585,-5.5586,-5.5598,-5.5588,-5.5567,-5.5565,-5.5564,-5.5563,0,-5.5354,-5.5343,-5.5429,-5.5439,-5.5443,-5.5504,-5.5511,-5.5557,-5.5551,-5.5613,-5.5626,-5.5617,-5.5665,-5.5649,-5.5702,-5.5692,-5.5787,-5.5771,-5.578,-5.5775,-5.5843,-5.5836,-5.6072,-5.61,-5.5891,-5.5893,-5.5894,0,-5.5462,-5.5519,-5.5535,-5.5565,-5.5578,-5.5627,-5.5654,-5.563,-5.5659,-5.5687,-5.5729,-5.5774,-5.5809,-5.5889,-5.5886,-5.5925,-5.5908,-5.5988,-5.5914,-5.5919,-5.5906,-5.5902,-5.5907,-5.6002,-5.6005,-5.6007,-5.6008,0,-5.5654,-5.5645,-5.5686,-5.5726,-5.5759,-5.5789,-5.5814,-5.5841,-5.5818,-5.5853,-5.5903,-5.593,-5.5983,-5.6028,-5.6063,-5.6071,-5.6035,-5.6032,-5.6049,-5.6057,-5.6059,-5.6056,-5.5818,-5.6026,-5.6024,-5.6023,-5.6022,-5.6021,-5.5794,-5.5841,-5.5859,-5.5906,-5.5923,-5.5947,-5.599,-5.599,-5.6031,-5.6073,-5.6056,-5.6112,-5.6129,-5.6173,-5.6185,-5.6228,-5.6197,-5.6223,-5.6229,-5.6235,-5.6243,-5.6054,-5.6235,-5.6234,-5.6234,-5.6233,-5.6233,0,-5.5981,-5.599,-5.6033,-5.607,-5.6107,-5.6071,-5.6097,-5.6129,-5.618,-5.6199,-5.6234,-5.629,-5.6333,-5.6332,-5.6372,-5.6406,-5.639,-5.6416,-5.6413,-5.6414,-5.627,-5.6249,-5.6428,-5.6428,-5.6428,-5.6428,-5.6428,-5.6428,-5.6083,-5.616,-5.6153,-5.6237,-5.6245,-5.6301,-5.6318,-5.634,-5.6355,-5.6419,-5.6455,-5.6454,-5.6465,-5.6505,-5.6541,-5.654,-5.6555,-5.6588,-5.658,-5.6444,-5.6425,-5.6406,-5.6387,-5.6592,-5.6592,-5.6721,-5.6722,-5.6723]}]]